Location: Podia
(1.5569°N, 32.3469°E)
Time: 06:25:56
(UTC+00:00)

Vanguard 2 - All Passes

Search period start: 25 September 2020 00:00
Search period end: 05 October 2020 00:00
Orbit: 554 x 2937 km, 32.9° (Epoch: 24 September)

Date Brightness Start Highest point End Pass type
(mag) Time Alt. Az. Time Alt. Az. Time Alt. Az.
25 Sep - 01:23:26 10° WSW 01:33:57 46° NW 01:40:19 10° NNE visible
25 Sep - 10:12:06 10° NNW 10:16:43 25° NE 10:23:17 10° E daylight
25 Sep - 12:18:25 10° WNW 12:25:34 72° SSW 12:38:00 10° SE daylight
25 Sep - 14:29:03 10° WSW 14:37:45 28° SSW 14:49:59 10° SSE daylight
25 Sep - 16:45:59 10° SW 16:53:46 15° S 17:02:25 10° SSE visible
25 Sep - 19:03:14 10° SSW 19:12:35 16° S 19:21:26 10° SE visible
25 Sep - 21:15:18 10° SSW 21:29:11 30° SSE 21:39:32 10° E visible
25 Sep - 23:27:30 10° SW 23:42:06 73° SSE 23:50:44 10° ENE visible
26 Sep - 01:42:39 10° W 01:51:39 31° NW 01:57:33 10° NNE visible
26 Sep - 10:29:11 10° NNW 10:34:24 39° NE 10:42:34 10° ESE daylight
26 Sep - 12:36:35 10° WNW 12:43:49 51° SSW 12:55:55 10° SE daylight
26 Sep - 14:48:41 10° WSW 14:56:47 22° SSW 15:07:28 10° SSE daylight
26 Sep - 17:06:42 10° SSW 17:13:43 14° S 17:21:16 10° SSE visible
26 Sep - 19:21:21 10° SSW 19:32:21 19° SSE 19:42:24 10° SE visible
26 Sep - 21:32:54 10° SW 21:48:02 39° SSE 21:58:43 10° E visible
26 Sep - 23:45:42 10° SW 00:00:11 85° NW 00:08:40 10° NE visible
27 Sep - 02:02:29 10° W 02:09:25 21° NW 02:14:26 10° N visible
27 Sep - 10:46:36 10° NW 10:52:07 62° NE 11:01:18 10° ESE daylight
27 Sep - 12:55:06 10° W 13:02:16 37° SSW 13:13:35 10° SE daylight
27 Sep - 15:08:52 10° SW 15:16:05 17° SSW 15:24:57 10° SSE daylight
27 Sep - 17:26:39 10° SSW 17:33:47 14° S 17:41:15 10° SSE visible
27 Sep - 19:39:08 10° SSW 19:51:51 23° SSE 20:03:00 10° ESE visible
27 Sep - 21:50:36 10° SW 22:06:40 50° SSE 22:17:28 10° ENE visible
28 Sep - 00:04:14 10° WSW 00:18:05 63° NW 00:26:21 10° NE visible
28 Sep - 02:23:26 10° WNW 02:27:20 13° NW 02:30:35 10° N visible
28 Sep - 08:59:24 10° N 09:01:49 13° NE 09:04:37 10° ENE daylight
28 Sep - 11:04:20 10° WNW 11:09:59 85° SW 11:19:38 10° SE daylight
28 Sep - 13:14:02 10° WSW 13:20:55 27° SSW 13:31:03 10° SSE daylight
28 Sep - 15:29:34 10° SW 15:35:36 14° S 15:42:36 10° SSE daylight
28 Sep - 17:45:34 10° SSW 17:53:47 15° S 18:02:16 10° SE visible
28 Sep - 19:56:45 10° SSW 20:11:04 29° SSE 20:23:04 10° ESE visible
28 Sep - 22:08:26 10° SW 22:25:06 65° SSE 22:35:52 10° ENE visible
29 Sep - 00:23:09 10° WSW 00:35:54 45° NW 00:43:49 10° NNE visible
29 Sep - 09:15:47 10° NNW 09:19:33 24° NE 09:24:36 10° E daylight
29 Sep - 11:22:20 10° WNW 11:28:04 56° SSW 11:37:36 10° SE daylight
29 Sep - 13:33:29 10° WSW 13:39:47 20° SSW 13:48:19 10° SSE daylight
29 Sep - 15:50:30 10° SSW 15:55:22 12° S 16:00:44 10° SSE visible
29 Sep - 18:03:43 10° SSW 18:13:38 17° SSE 18:23:39 10° SE visible
29 Sep - 20:14:19 10° SSW 20:30:00 36° SSE 20:42:36 10° E visible
29 Sep - 22:26:30 10° SW 22:43:19 83° SE 22:53:59 10° ENE night (unlit)
30 Sep - 00:42:34 10° W 00:53:43 32° NW 01:01:04 10° NNE visible
30 Sep - 09:32:55 10° NNW 09:37:15 41° NE 09:43:37 10° ESE daylight
30 Sep - 11:40:42 10° W 11:46:21 37° SSW 11:55:17 10° SE daylight
30 Sep - 13:53:36 10° SW 13:58:52 15° SSW 14:05:23 10° SSE daylight
30 Sep - 16:10:47 10° SSW 16:15:16 12° S 16:20:07 10° SSE visible
30 Sep - 18:21:28 10° SSW 18:33:13 21° SSE 18:44:47 10° ESE visible
30 Sep - 20:31:58 10° SW 20:48:43 46° SSE 21:01:40 10° E visible
30 Sep - 22:44:49 10° WSW 23:01:23 77° NW 23:11:51 10° NE night (unlit)
01 Oct - 01:02:37 10° W 01:11:37 23° NW 01:18:03 10° N visible
01 Oct - 09:50:26 10° NW 09:55:01 74° NE 10:02:06 10° ESE daylight
01 Oct - 11:59:30 10° WSW 12:04:51 25° SSW 12:12:39 10° SSE daylight
01 Oct - 14:14:42 10° SSW 14:18:10 12° S 14:22:04 10° S daylight
01 Oct - 16:29:38 10° S 16:35:12 12° S 16:41:12 10° SSE visible
01 Oct - 18:39:02 10° SSW 18:52:30 26° SSE 19:05:23 10° ESE visible
01 Oct - 20:49:42 10° SW 21:07:15 59° SSE 21:20:19 10° ENE visible
01 Oct - 23:03:29 10° WSW 23:19:20 59° NW 23:29:30 10° NE visible
02 Oct - 01:23:31 10° WNW 01:29:43 16° NW 01:34:37 10° N visible
02 Oct - 08:02:47 10° N 08:04:52 13° NE 08:07:10 10° ENE daylight
02 Oct - 10:08:18 10° WNW 10:12:57 64° SSW 10:20:09 10° SE daylight
02 Oct - 12:18:53 10° WSW 12:23:32 18° SSW 12:29:41 10° SSE daylight
02 Oct - 16:47:32 10° SSW 16:55:01 14° SSE 17:03:08 10° SE visible
02 Oct - 18:56:32 10° SSW 19:11:30 33° SSE 19:25:24 10° E visible
02 Oct - 21:07:36 10° SW 21:25:35 74° SE 21:38:38 10° ENE visible
02 Oct - 23:22:33 10° WSW 23:37:15 45° NW 23:46:58 10° NNE visible
03 Oct - 01:46:41 10° NW 01:48:03 10° NNW 01:49:21 10° NNW visible
03 Oct - 08:19:17 10° NNW 08:22:41 25° NE 08:26:47 10° E daylight
03 Oct - 10:26:32 10° W 10:31:04 38° SSW 10:37:50 10° SE daylight
03 Oct - 12:39:18 10° SW 12:42:24 12° SSW 12:46:03 10° S daylight
03 Oct - 17:05:03 10° SSW 17:14:36 18° SSE 17:24:57 10° ESE visible
03 Oct - 19:14:05 10° SSW 19:30:15 42° SSE 19:44:52 10° E visible
03 Oct - 21:25:43 10° SW 21:43:47 89° NW 21:56:42 10° NE visible
03 Oct - 23:42:08 10° W 23:55:14 33° NW 00:04:16 10° NNE visible
04 Oct - 08:36:33 10° NW 08:40:27 49° NE 08:45:30 10° ESE daylight
04 Oct - 10:45:14 10° WSW 10:49:23 24° SSW 10:55:09 10° SSE daylight
04 Oct - 17:22:25 10° SSW 17:33:53 22° SSE 17:46:15 10° ESE visible
04 Oct - 19:31:41 10° SW 19:48:47 53° SSE 20:03:51 10° ENE visible
04 Oct - 21:44:07 10° WSW 22:01:52 71° NW 22:14:31 10° NE visible
